This demonstration page uses our WeatherBlox Daily Observations layout. Learn more.

39.29038, -76.61219

Hourly Observations for July 21, 2015

Temp ( °F °C ) Dew Point ( °F °C ) Humidity (%) Winds ( mph kmh ) Pressure ( in mb ) Visibility ( mi km ) Precip ( " mm )
12:54 am 00:54 Cloudy 83 28.3 77 25 82 82 undefined N/A 29.38 995 N/A 0 0
1:54 am 01:54 undefined 83 28.3 72 22.2 70 70 undefined N/A 29.7 1006 N/A 0 0
2:54 am 02:54 undefined 83 28.3 70 21.1 65 65 undefined N/A 29.69 1006 N/A 0 0
3:54 am 03:54 undefined 83 28.3 68 20 61 61 undefined N/A 29.68 1005 N/A 0 0
4:54 am 04:54 Clear 81 27.2 75 23.8 82 82 undefined N/A 28.11 952 N/A 0 0
5:54 am 05:54 Cloudy 60 15.6 54 12.2 80 80 undefined N/A 30.01 1016 N/A 0 0
6:54 am 06:54 undefined 82 27.8 68 20 63 63 undefined N/A 29.68 1005 N/A 0 0
7:54 am 07:54 undefined 83 28.3 68 20 61 61 undefined N/A 29.68 1005 N/A 0 0
8:54 am 08:54 undefined 85 29.4 68 20 57 57 undefined N/A 29.67 1005 N/A 0 0
9:54 am 09:54 undefined 88 31.1 69 20.6 54 54 undefined N/A 29.66 1005 N/A 0 0
10:54 am 10:54 undefined 89 31.7 69 20.6 52 52 undefined N/A 29.67 1005 N/A 0 0
11:54 am 11:54 undefined 87 30.6 70 21.1 57 57 undefined N/A 29.67 1005 N/A 0 0
12:54 pm 12:54 undefined 88 31.1 69 20.6 54 54 undefined N/A 29.67 1005 N/A 0 0
1:54 pm 13:54 undefined 87 30.6 70 21.1 57 57 undefined N/A 29.65 1004 N/A 0 0
2:54 pm 14:54 undefined 89 31.7 70 21.1 53 53 undefined N/A 29.63 1003 N/A 0 0
3:54 pm 15:54 undefined 89 31.7 69 20.6 52 52 undefined N/A 29.62 1003 N/A 0 0
4:54 pm 16:54 undefined 90 32.2 69 20.6 50 50 undefined N/A 29.62 1003 N/A 0 0
5:54 pm 17:54 undefined 89 31.7 69 20.6 52 52 undefined N/A 29.61 1003 N/A 0 0
6:54 pm 18:54 undefined 88 31.1 69 20.6 54 54 undefined N/A 29.63 1003 N/A 0 0
7:54 pm 19:54 Mostly Cloudy 87 30.6 69 20.6 55 55 undefined N/A 29.64 1004 N/A 0 0
8:54 pm 20:54 undefined 82 27.8 66 18.9 58 58 undefined N/A 29.69 1005 N/A 0 0
9:54 pm 21:54 Cloudy 77 25 68 20 74 74 undefined N/A 29.71 1006 N/A 0.03 0.762
10:54 pm 22:54 undefined 79 26.1 65 18.3 62 62 undefined N/A 29.71 1006 N/A 0 0
11:54 pm 23:54 undefined 78 25.6 65 18.3 64 64 undefined N/A 29.72 1007 N/A 0 0

Powered by AerisWeather